| time (UTC) | temp F | wind direction | speed MPH | gust MPH | rain 1hr in | rain 24hr in | rain mn in | humidity % | barometer mb |
| 20260504140117 | 83 | 0 | 0.0 | 0.0 | 0.00 | 0.00 | 0.00 | 99 | 1007.0 |
| 20260504130800 | 84 | 0 | 0.0 | 0.0 | 0.00 | 0.00 | 0.00 | 99 | 1005.0 |
| 20260504081556 | 83 | 0 | 0.0 | 0.0 | 0.00 | 0.00 | 0.00 | 97 | 1004.0 |
| 20260504045450 | 98 | 0 | 0.0 | 0.0 | 0.00 | 0.00 | 0.00 | 59 | 1006.0 |
| 20260504043925 | 97 | 0 | 0.0 | 0.0 | 0.00 | 0.00 | 0.00 | 60 | 1006.0 |
| 20260504042400 | 100 | 0 | 0.0 | 0.0 | 0.00 | 0.00 | 0.00 | 58 | 1007.0 |
| 20260504040836 | 99 | 0 | 0.0 | 0.0 | 0.00 | 0.00 | 0.00 | 58 | 1007.0 |
| 20260504035310 | 98 | 0 | 0.0 | 0.0 | 0.00 | 0.00 | 0.00 | 59 | 1007.0 |
| 20260504033745 | 98 | 0 | 0.0 | 0.0 | 0.00 | 0.00 | 0.00 | 57 | 1007.0 |
| 20260504032221 | 100 | 0 | 0.0 | 0.0 | 0.00 | 0.00 | 0.00 | 55 | 1007.0 |
| 20260504030656 | 100 | 0 | 0.0 | 0.0 | 0.00 | 0.00 | 0.00 | 55 | 1007.0 |
| 20260504025131 | 96 | 0 | 0.0 | 0.0 | 0.00 | 0.00 | 0.00 | 65 | 1008.0 |
| 20260504023606 | 97 | 0 | 0.0 | 0.0 | 0.00 | 0.00 | 0.00 | 67 | 1008.0 |
| 20260504022041 | 97 | 0 | 0.0 | 0.0 | 0.00 | 0.00 | 0.00 | 66 | 1008.0 |
| 20260504020516 | 96 | 0 | 0.0 | 0.0 | 0.00 | 0.00 | 0.00 | 65 | 1008.0 |
| 20260504014950 | 106 | 0 | 0.0 | 0.0 | 0.00 | 0.00 | 0.00 | 49 | 1007.0 |
| 20260504013424 | 110 | 0 | 0.0 | 0.0 | 0.00 | 0.00 | 0.00 | 45 | 1007.0 |
| 20260504011844 | 100 | 0 | 0.0 | 0.0 | 0.00 | 0.00 | 0.00 | 58 | 1007.0 |
| 20260504010248 | 100 | 0 | 0.0 | 0.0 | 0.00 | 0.00 | 0.00 | 66 | 1007.0 |
| 20260504004800 | 93 | 0 | 0.0 | 0.0 | 0.00 | 0.00 | 0.00 | 71 | 1007.0 |
| 20260504003235 | 98 | 0 | 0.0 | 0.0 | 0.00 | 0.00 | 0.00 | 62 | 1007.0 |
| 20260504001710 | 99 | 0 | 0.0 | 0.0 | 0.00 | 0.00 | 0.00 | 70 | 1007.0 |
| 20260504000146 | 94 | 0 | 0.0 | 0.0 | 0.00 | 0.00 | 0.00 | 77 | 1007.0 |
| 20260503234620 | 89 | 0 | 0.0 | 0.0 | 0.00 | 0.00 | 0.00 | 98 | 1007.0 |
| 20260503233055 | 82 | 0 | 0.0 | 0.0 | 0.00 | 0.00 | 0.00 | 99 | 1006.0 |
| 20260503231533 | 81 | 0 | 0.0 | 0.0 | 0.00 | 0.00 | 0.00 | 99 | 1006.0 |
| 20260503230004 | 80 | 0 | 0.0 | 0.0 | 0.00 | 0.00 | 0.00 | 99 | 1006.0 |
| 20260503224439 | 80 | 0 | 0.0 | 0.0 | 0.00 | 0.00 | 0.00 | 99 | 1006.0 |
| 20260503222914 | 81 | 0 | 0.0 | 0.0 | 0.00 | 0.00 | 0.00 | 99 | 1005.0 |
| 20260503221348 | 80 | 0 | 0.0 | 0.0 | 0.00 | 0.00 | 0.00 | 99 | 1005.0 |
| 20260503215822 | 81 | 0 | 0.0 | 0.0 | 0.00 | 0.00 | 0.00 | 99 | 1005.0 |
| 20260503214257 | 81 | 0 | 0.0 | 0.0 | 0.00 | 0.00 | 0.00 | 99 | 1005.0 |
| 20260503212731 | 81 | 0 | 0.0 | 0.0 | 0.00 | 0.00 | 0.00 | 99 | 1005.0 |
| 20260503211207 | 81 | 0 | 0.0 | 0.0 | 0.00 | 0.00 | 0.00 | 99 | 1005.0 |
| 20260503205642 | 81 | 0 | 0.0 | 0.0 | 0.00 | 0.00 | 0.00 | 99 | 1005.0 |
| 20260503204117 | 81 | 0 | 0.0 | 0.0 | 0.00 | 0.00 | 0.00 | 99 | 1005.0 |
| 20260503202553 | 82 | 0 | 0.0 | 0.0 | 0.00 | 0.00 | 0.00 | 99 | 1005.0 |
| 20260503201027 | 82 | 0 | 0.0 | 0.0 | 0.00 | 0.00 | 0.00 | 99 | 1005.0 |
| 20260503195502 | 82 | 0 | 0.0 | 0.0 | 0.00 | 0.00 | 0.00 | 99 | 1005.0 |
| 20260503193937 | 82 | 0 | 0.0 | 0.0 | 0.00 | 0.00 | 0.00 | 99 | 1005.0 |
| 20260503192411 | 82 | 0 | 0.0 | 0.0 | 0.00 | 0.00 | 0.00 | 99 | 1005.0 |
| 20260503190846 | 82 | 0 | 0.0 | 0.0 | 0.00 | 0.00 | 0.00 | 99 | 1005.0 |
| 20260503185322 | 82 | 0 | 0.0 | 0.0 | 0.00 | 0.00 | 0.00 | 99 | 1005.0 |
| 20260503183756 | 82 | 0 | 0.0 | 0.0 | 0.00 | 0.00 | 0.00 | 99 | 1005.0 |
| 20260503182231 | 82 | 0 | 0.0 | 0.0 | 0.00 | 0.00 | 0.00 | 99 | 1005.0 |
| 20260503180706 | 82 | 0 | 0.0 | 0.0 | 0.00 | 0.00 | 0.00 | 99 | 1005.0 |
| 20260503175141 | 83 | 0 | 0.0 | 0.0 | 0.00 | 0.00 | 0.00 | 99 | 1006.0 |
| 20260503173616 | 83 | 0 | 0.0 | 0.0 | 0.00 | 0.00 | 0.00 | 99 | 1006.0 |
| 20260503172050 | 83 | 0 | 0.0 | 0.0 | 0.00 | 0.00 | 0.00 | 99 | 1005.0 |
| 20260503170525 | 83 | 0 | 0.0 | 0.0 | 0.00 | 0.00 | 0.00 | 99 | 1005.0 |
| 20260503150205 | 85 | 0 | 0.0 | 0.0 | 0.00 | 0.00 | 0.00 | 98 | 1005.0 |